Location: Newark
(40.7830°N, 8.7430°E)
Time: 11:20:30
(UTC+00:00)

Envisat - Visible Passes

Search period start: 23 September 2019 00:00
Search period end: 03 October 2019 00:00
Orbit: 764 x 766 km, 98.1° (Epoch: 23 September)

Date Brightness Start Highest point End Pass type
(mag) Time Alt. Az. Time Alt. Az. Time Alt. Az.
24 Sep 5.5 18:35:45 10° SSW 18:39:47 24° W 18:43:51 10° NW visible
25 Sep 3.9 17:57:53 10° S 18:02:49 53° W 18:07:48 10° NNW visible
26 Sep 6.1 19:03:10 10° WSW 19:05:33 13° W 19:07:57 10° WNW visible
27 Sep 5.1 18:24:01 10° SSW 18:28:27 30° W 18:32:54 10° NW visible
28 Sep 3.5 17:46:30 10° S 17:51:32 68° WSW 17:56:37 10° NNW visible
29 Sep 5.9 18:50:55 10° SW 18:54:10 17° W 18:57:27 10° NW visible
30 Sep 4.6 18:12:26 10° SSW 18:17:07 38° W 18:21:51 10° NNW visible
01 Oct 3.1 17:35:12 10° SSE 17:40:16 85° WSW 17:45:23 10° NNW visible
02 Oct 5.6 18:38:57 10° SW 18:42:48 22° W 18:46:41 10° NW visible
